User: anonymous   Login
Location: Kitchener
(43.2612°N, 80.5078°W)
Time: 21:44:46
(UTC+02:00)
Language:

Iridium 57 - Orbit

View from above orbital plane
View from above orbital plane
View from above satellite
View from above satellite

Ground track
Ground track

The orbit data is extracted from the following two-line orbital elements,

1 25273U 98019B   15188.50134917  .00000131  00000-0  39754-4 0  9996
2 25273 086.3959 224.3398 0002318 093.2286 266.9175 14.34215459904205
Epoch (UTC): 07 July 2015 12:01:56
Eccentricity: 0.0002318
inclination: 86.3959°
perigee height: 776 km
apogee height: 779 km
right ascension of ascending node: 224.3398°
argument of perigee: 93.2286°
revolutions per day: 14.34215459
mean anomaly at epoch: 266.9175°
orbit number at epoch: 90420

The dashed part of the orbit path shows where the satellite is in the earth's shadow,  

DLR